Regional Weather Roundup
Issued by NWS Bismarck, ND

Home | Current Version | Previous Version | Text Only | Print | Product List | Glossary On
Versions: 1 2 3 4 5 6 7 8 9 10 11 12 13 14 15 16 17 18 19 20 21 22 23 24 25 26 27 28 29 30 31 32 33 34 35 36 37 38 39 40 41 42 43 44 45 46 47 48 49 50
000
ASUS43 KBIS 230810
RWRBIS

NWR BROADCAST TEXT
NATIONAL WEATHER SERVICE BISMARCK ND
300 AM CDT SAT MAY 23 2015

NOTE: "FAIR" INDICATES FEW OR NO CLOUDS BELOW 12,000 FEET WITH NO
SIGNIFICANT WEATHER AND/OR OBSTRUCTIONS TO VISIBILITY.


CITY           SKY/WX    TMP DP  RH WIND       PRES   REMARKS
WILLISTON      PTCLDY    50  38  63 SW3       30.10R
MINOT          CLOUDY    59  39  47 SW9       30.10S
MINOT AFB      CLOUDY    56  43  62 SW7       30.09S
BISMARCK       CLEAR     46  40  79 SE5       30.15R
DICKINSON      CLEAR     42  36  79 S7        30.08F
GARRISON         N/A     49  39  68 CALM      30.12S
HETTINGER ARPT PTCLDY    43  39  86 E6        30.10S
JAMESTOWN      PTCLDY    53  42  66 SW9       30.13R
BEACH          FAIR      45  39  81 SE10      30.08S
CARRINGTON     FAIR      48  41  76 SW7       30.14S
CROSBY         FAIR      48  41  76 SW9       30.11R
HARVEY         FAIR      50  43  76 SW6       30.13R
HAZEN          FAIR      39  37  93 CALM      30.13S
LINTON         FAIR      45  45 100 E6        30.16R
MANDAN         PTSUNNY   46  39  76 S8        30.15R
OAKES            N/A     50  48  93 S8        30.18R
STANLEY        FAIR      46  39  76 CALM      30.13S
WATFORD CITY   FAIR      50  36  57 SE5       30.09S
$$

CITY           SKY/WX    TMP DP  RH WIND       PRES   REMARKS
GRAND FORKS    CLEAR     51  41  68 SE6       30.13R
GRAND FORKS AF CLEAR     49  40  73 SW5       30.13S
DEVILS LAKE    CLEAR     54  39  58 CALM      30.12S
FARGO          CLEAR     54  40  59 S8        30.15R
CANDO          FAIR      46  41  81 S5        30.13R
CAVALIER       FAIR      50  43  76 SW5       30.11S
GRAFTON        FAIR      52  45  76 SW5       30.13S
LANGDON        FAIR      45  36  70 S9        30.13S
ROLLA          FAIR      50  34  53 SW5       30.14S
WALHALLA       FAIR      59  34  38 SW5       30.11S
$$

CITY           SKY/WX    TMP DP  RH WIND       PRES   REMARKS
ABERDEEN       CLEAR     43  40  89 SE6       30.19S
MOBRIDGE       PTCLDY    48  45  89 E3        30.12S
BUFFALO          N/A     44  40  85 E12       30.00S
RAPID CITY     CLOUDY    47  44  90 SE5       30.05F
GLASGOW        MOCLDY    57  42  57 E10       30.02R
SIDNEY         PTCLDY    52  37  58 CALM      30.08S
WOLF POINT     CLOUDY    55  42  61 NE8       30.05R
GLENDIVE       PTCLDY    50  37  62 E7        30.06S
MILES CITY     MOCLDY    54  41  61 SE12      29.99F
BAKER          PTCLDY    43  37  79 E8        30.05F
$$

CITY           SKY/WX    TMP DP  RH WIND       PRES   REMARKS
BILLINGS       MOCLDY    50  45  83 N5        29.95S
GREAT FALLS    PTCLDY    54  43  66 E10       29.98S
REGINA         PTCLDY    52  37  58 E6        30.08S
ESTEVAN        PTCLDY    54  41  62 S7        30.10R
$$



USA.gov is the U.S. government's official web portal to all federal, state and local government web resources and services.